RON19 ANYN-NFNA

Flight info

Callsign RON19
Flight time 2h 57m
Altitude 37000
Route 04S169E 07S171E DCT ATRAS G223 GUSMA Q31 MAKSO
Aircraft B738/M-SDE2E3FGHIRWXY/LB1

Departure

Time 2026-04-21 07:27
Airport Nauru International Airport (ANYN)

Arrival

Time 2026-04-21 10:24
Airport Nausori International Airport (NFNA)
Time Latitude Longitude Altitude Speed Heading
2026-04-21 07:11 -0.54703 166.91608 30 ft 0 kts 39°
2026-04-21 07:18 -0.54706 166.91605 30 ft 2 kts 39°
2026-04-21 07:18 -0.54719 166.91595 30 ft 3 kts 39°
2026-04-21 07:18 -0.54734 166.91582 30 ft 3 kts 39°
2026-04-21 07:19 -0.54750 166.91569 30 ft 3 kts 39°
2026-04-21 07:19 -0.54766 166.91556 30 ft 3 kts 39°
2026-04-21 07:19 -0.54781 166.91543 30 ft 3 kts 39°
2026-04-21 07:19 -0.54786 166.91539 30 ft 0 kts 39°
2026-04-21 07:21 -0.54784 166.91541 30 ft 1 kts 47°
2026-04-21 07:21 -0.54785 166.91556 30 ft 4 kts 117°
2026-04-21 07:22 -0.54806 166.91591 30 ft 8 kts 125°
2026-04-21 07:22 -0.54848 166.91643 30 ft 12 kts 129°
2026-04-21 07:22 -0.54910 166.91711 30 ft 15 kts 133°
2026-04-21 07:22 -0.54988 166.91794 30 ft 18 kts 133°
2026-04-21 07:23 -0.55077 166.91889 30 ft 20 kts 133°
2026-04-21 07:23 -0.55178 166.91998 30 ft 22 kts 133°
2026-04-21 07:23 -0.55259 166.92098 30 ft 16 kts 131°
2026-04-21 07:23 -0.55339 166.92189 30 ft 19 kts 131°
2026-04-21 07:24 -0.55430 166.92292 30 ft 21 kts 131°
2026-04-21 07:24 -0.55528 166.92404 30 ft 18 kts 131°
2026-04-21 07:24 -0.55589 166.92515 30 ft 19 kts 105°
2026-04-21 07:24 -0.55628 166.92511 30 ft 1 kts 302°
2026-04-21 07:25 -0.55627 166.92510 30 ft 0 kts 302°
2026-04-21 07:26 -0.55553 166.92418 30 ft 52 kts 313°
2026-04-21 07:26 -0.55141 166.91946 30 ft 126 kts 310°
2026-04-21 07:26 -0.54415 166.91157 152 ft 175 kts 313°
2026-04-21 07:27 -0.53550 166.90219 841 ft 192 kts 313°
2026-04-21 07:27 -0.52654 166.89205 1797 ft 192 kts 311°
2026-04-21 07:27 -0.51822 166.88267 2893 ft 177 kts 311°
2026-04-21 07:27 -0.51031 166.87280 3406 ft 195 kts 297°
2026-04-21 07:28 -0.50887 166.85930 3929 ft 197 kts 250°
2026-04-21 07:28 -0.51721 166.84905 4703 ft 190 kts 205°
2026-04-21 07:28 -0.52982 166.84778 5384 ft 186 kts 162°
2026-04-21 07:28 -0.54131 166.85377 6092 ft 188 kts 148°
2026-04-21 07:29 -0.55274 166.86060 6644 ft 199 kts 148°
2026-04-21 07:29 -0.56514 166.86823 6919 ft 221 kts 148°
2026-04-21 07:29 -0.57895 166.87677 7177 ft 246 kts 147°
2026-04-21 07:29 -0.59394 166.88603 7694 ft 259 kts 147°
2026-04-21 07:30 -0.60943 166.89563 8265 ft 272 kts 147°
2026-04-21 07:30 -0.62592 166.90584 8972 ft 279 kts 147°
2026-04-21 07:30 -0.64257 166.91614 9771 ft 283 kts 147°
2026-04-21 07:30 -0.65932 166.92650 10526 ft 289 kts 147°
2026-04-21 07:31 -0.67693 166.93741 11003 ft 305 kts 147°
2026-04-21 07:31 -0.69555 166.94894 11297 ft 325 kts 147°
2026-04-21 07:31 -0.71527 166.96115 11657 ft 340 kts 147°
2026-04-21 07:31 -0.73554 166.97370 12255 ft 347 kts 147°
2026-04-21 07:32 -0.75614 166.98646 12935 ft 350 kts 147°
2026-04-21 07:32 -0.77694 166.99934 13608 ft 354 kts 147°
2026-04-21 07:32 -0.79792 167.01233 14258 ft 357 kts 147°
2026-04-21 07:32 -0.81942 167.02565 14895 ft 361 kts 147°
2026-04-21 07:33 -0.84083 167.03891 15493 ft 365 kts 147°
2026-04-21 07:33 -0.86252 167.05235 16074 ft 369 kts 148°
2026-04-21 07:33 -0.88435 167.06587 16633 ft 373 kts 148°
2026-04-21 07:33 -0.90653 167.07961 17174 ft 377 kts 148°
2026-04-21 07:34 -0.92884 167.09343 17697 ft 380 kts 148°
2026-04-21 07:34 -0.95138 167.10739 18202 ft 384 kts 148°
2026-04-21 07:34 -0.97417 167.12151 18694 ft 388 kts 148°
2026-04-21 07:34 -0.99722 167.13579 19169 ft 392 kts 148°
2026-04-21 07:35 -1.02044 167.15017 19645 ft 395 kts 148°
2026-04-21 07:35 -1.04383 167.16466 20102 ft 398 kts 148°
2026-04-21 07:35 -1.06745 167.17929 20541 ft 401 kts 148°
2026-04-21 07:35 -1.09158 167.19424 20961 ft 405 kts 148°
2026-04-21 07:36 -1.11558 167.20910 21362 ft 409 kts 148°
2026-04-21 07:36 -1.13982 167.22413 21746 ft 412 kts 147°
2026-04-21 07:36 -1.16409 167.23916 22118 ft 416 kts 147°
2026-04-21 07:36 -1.18898 167.25458 22487 ft 419 kts 147°
2026-04-21 07:37 -1.21385 167.26999 22843 ft 422 kts 147°
2026-04-21 07:37 -1.23880 167.28545 23186 ft 425 kts 148°
2026-04-21 07:37 -1.26408 167.30111 23528 ft 428 kts 148°
2026-04-21 07:37 -1.28944 167.31682 23862 ft 431 kts 148°
2026-04-21 07:38 -1.31498 167.33265 24187 ft 434 kts 148°
2026-04-21 07:38 -1.34056 167.34850 24506 ft 436 kts 148°
2026-04-21 07:38 -1.36637 167.36450 24819 ft 439 kts 148°
2026-04-21 07:38 -1.39241 167.38063 25125 ft 441 kts 148°
2026-04-21 07:39 -1.41853 167.39681 25426 ft 443 kts 148°
2026-04-21 07:39 -1.44467 167.41302 25717 ft 445 kts 148°
2026-04-21 07:39 -1.47106 167.42937 26002 ft 447 kts 148°
2026-04-21 07:39 -1.49758 167.44580 26281 ft 449 kts 148°
2026-04-21 07:40 -1.52454 167.46251 26556 ft 451 kts 148°
2026-04-21 07:40 -1.55117 167.47901 26821 ft 453 kts 148°
2026-04-21 07:40 -1.57796 167.49562 27080 ft 455 kts 148°
2026-04-21 07:40 -1.60488 167.51231 27334 ft 457 kts 148°
2026-04-21 07:41 -1.63199 167.52911 27582 ft 459 kts 148°
2026-04-21 07:41 -1.65918 167.54596 27824 ft 461 kts 148°
2026-04-21 07:41 -1.68644 167.56286 28058 ft 463 kts 148°
2026-04-21 07:41 -1.71369 167.57975 28288 ft 465 kts 148°
2026-04-21 07:42 -1.74121 167.59681 28513 ft 466 kts 148°
2026-04-21 07:42 -1.76877 167.61390 28732 ft 468 kts 148°
2026-04-21 07:42 -1.79644 167.63105 28946 ft 470 kts 148°
2026-04-21 07:42 -1.82424 167.64829 29153 ft 471 kts 148°
2026-04-21 07:43 -1.84305 167.65995 29293 ft 472 kts 148°
2026-04-21 07:43 -1.87920 167.68236 29555 ft 474 kts 148°
2026-04-21 07:43 -1.90724 167.69975 29744 ft 476 kts 148°
2026-04-21 07:43 -1.93567 167.71738 29935 ft 477 kts 148°
2026-04-21 07:44 -1.96399 167.73494 30120 ft 479 kts 148°
2026-04-21 07:44 -1.99228 167.75248 30292 ft 480 kts 148°
2026-04-21 07:44 -2.02051 167.76999 30535 ft 480 kts 147°
2026-04-21 07:44 -2.04882 167.78755 30802 ft 479 kts 147°
2026-04-21 07:45 -2.07712 167.80509 31057 ft 479 kts 147°
2026-04-21 07:45 -2.10533 167.82259 31316 ft 478 kts 147°
2026-04-21 07:45 -2.13359 167.84012 31573 ft 478 kts 147°
2026-04-21 07:45 -2.16175 167.85759 31830 ft 477 kts 147°
2026-04-21 07:46 -2.18995 167.87508 32089 ft 477 kts 147°
2026-04-21 07:46 -2.20858 167.88664 32259 ft 477 kts 147°
2026-04-21 07:46 -2.24615 167.90995 32603 ft 476 kts 148°
2026-04-21 07:46 -2.27424 167.92737 32863 ft 476 kts 148°
2026-04-21 07:47 -2.29325 167.93917 33039 ft 475 kts 148°
2026-04-21 07:47 -2.32131 167.95658 33302 ft 475 kts 148°
2026-04-21 07:47 -2.34928 167.97393 33564 ft 474 kts 148°
2026-04-21 07:47 -2.37730 167.99132 33826 ft 474 kts 148°
2026-04-21 07:48 -2.40526 168.00867 34087 ft 473 kts 148°
2026-04-21 07:48 -2.43311 168.02595 34351 ft 472 kts 148°
2026-04-21 07:48 -2.46098 168.04325 34614 ft 472 kts 148°
2026-04-21 07:48 -2.48885 168.06054 34877 ft 471 kts 148°
2026-04-21 07:49 -2.51662 168.07778 35142 ft 470 kts 148°
2026-04-21 07:49 -2.54431 168.09496 35408 ft 470 kts 148°
2026-04-21 07:49 -2.57206 168.11219 35675 ft 469 kts 148°
2026-04-21 07:49 -2.60010 168.12960 35942 ft 468 kts 148°
2026-04-21 07:50 -2.62756 168.14664 36204 ft 467 kts 148°
2026-04-21 07:50 -2.65527 168.16385 36466 ft 467 kts 148°
2026-04-21 07:50 -2.68274 168.18090 36723 ft 466 kts 148°
2026-04-21 07:50 -2.71019 168.19795 36895 ft 467 kts 148°
2026-04-21 07:51 -2.76532 168.23218 36902 ft 466 kts 148°
2026-04-21 07:51 -2.82017 168.26624 36905 ft 464 kts 148°
2026-04-21 07:52 -2.87495 168.30026 36905 ft 465 kts 148°
2026-04-21 07:52 -2.93033 168.33466 36905 ft 465 kts 148°
2026-04-21 07:53 -2.98547 168.36892 36905 ft 465 kts 148°
2026-04-21 07:53 -3.04026 168.40296 36905 ft 465 kts 148°
2026-04-21 07:54 -3.09516 168.43707 36905 ft 465 kts 148°
2026-04-21 07:54 -3.14993 168.47111 36905 ft 465 kts 148°
2026-04-21 07:55 -3.20481 168.50522 36905 ft 465 kts 148°
2026-04-21 07:55 -3.25962 168.53930 36905 ft 464 kts 148°
2026-04-21 07:56 -3.31431 168.57330 36905 ft 464 kts 148°
2026-04-21 07:56 -3.36927 168.60747 36905 ft 464 kts 148°
2026-04-21 07:57 -3.42442 168.64177 36905 ft 464 kts 148°
2026-04-21 07:57 -3.47911 168.67579 36905 ft 464 kts 148°
2026-04-21 07:58 -3.53409 168.71000 36905 ft 464 kts 148°
2026-04-21 07:58 -3.58926 168.74433 36905 ft 464 kts 148°
2026-04-21 07:59 -3.64410 168.77845 36905 ft 464 kts 148°
2026-04-21 07:59 -3.69888 168.81255 36905 ft 464 kts 148°
2026-04-21 08:00 -3.75365 168.84660 36905 ft 464 kts 148°
2026-04-21 08:00 -3.80837 168.88063 36905 ft 464 kts 148°
2026-04-21 08:01 -3.86322 168.91478 36905 ft 464 kts 148°
2026-04-21 08:02 -3.94568 168.96614 36905 ft 464 kts 148°
2026-04-21 08:02 -4.00029 169.00021 36905 ft 464 kts 147°
2026-04-21 08:03 -4.05429 169.03589 36905 ft 464 kts 147°
2026-04-21 08:03 -4.10800 169.07151 36905 ft 464 kts 147°
2026-04-21 08:04 -4.16212 169.10741 36905 ft 464 kts 147°
2026-04-21 08:04 -4.21594 169.14312 36905 ft 464 kts 147°
2026-04-21 08:05 -4.26966 169.17877 36905 ft 464 kts 147°
2026-04-21 08:05 -4.32336 169.21440 36905 ft 464 kts 147°
2026-04-21 08:06 -4.37720 169.25012 36905 ft 464 kts 147°
2026-04-21 08:06 -4.43129 169.28601 36905 ft 464 kts 147°
2026-04-21 08:07 -4.48503 169.32169 36905 ft 464 kts 147°
2026-04-21 08:07 -4.53875 169.35736 36905 ft 464 kts 147°
2026-04-21 08:08 -4.59229 169.39291 36904 ft 464 kts 147°
2026-04-21 08:08 -4.64602 169.42860 36905 ft 464 kts 147°
2026-04-21 08:09 -4.70010 169.46454 36905 ft 464 kts 147°
2026-04-21 08:09 -4.75389 169.50028 36905 ft 464 kts 147°
2026-04-21 08:10 -4.80760 169.53598 36905 ft 464 kts 147°
2026-04-21 08:10 -4.86130 169.57167 36905 ft 464 kts 147°
2026-04-21 08:11 -4.91507 169.60743 36905 ft 464 kts 147°
2026-04-21 08:11 -4.96874 169.64312 36905 ft 464 kts 147°
2026-04-21 08:12 -5.02241 169.67882 36905 ft 464 kts 147°
2026-04-21 08:12 -5.07606 169.71451 36905 ft 464 kts 147°
2026-04-21 08:13 -5.13017 169.75052 36905 ft 464 kts 147°
2026-04-21 08:13 -5.18383 169.78624 36905 ft 464 kts 147°
2026-04-21 08:14 -5.23790 169.82223 36905 ft 464 kts 147°
2026-04-21 08:14 -5.29154 169.85795 36905 ft 464 kts 147°
2026-04-21 08:15 -5.34527 169.89373 36905 ft 464 kts 147°
2026-04-21 08:15 -5.39880 169.92939 36905 ft 464 kts 147°
2026-04-21 08:16 -5.45257 169.96522 36905 ft 464 kts 147°
2026-04-21 08:16 -5.50662 170.00124 36905 ft 464 kts 147°
2026-04-21 08:17 -5.56028 170.03701 36906 ft 464 kts 147°
2026-04-21 08:17 -5.61393 170.07277 36905 ft 464 kts 147°
2026-04-21 08:18 -5.66757 170.10854 36905 ft 464 kts 147°
2026-04-21 08:18 -5.72121 170.14432 36905 ft 464 kts 147°
2026-04-21 08:19 -5.77487 170.18013 36905 ft 464 kts 146°
2026-04-21 08:19 -5.82858 170.21597 36905 ft 464 kts 146°
2026-04-21 08:20 -5.88256 170.25200 36905 ft 464 kts 146°
2026-04-21 08:20 -5.93581 170.28755 36905 ft 464 kts 146°
2026-04-21 08:21 -5.98980 170.32361 36905 ft 464 kts 146°
2026-04-21 08:21 -6.04337 170.35939 36905 ft 464 kts 146°
2026-04-21 08:22 -6.09698 170.39521 36905 ft 464 kts 146°
2026-04-21 08:22 -6.15049 170.43097 36905 ft 463 kts 146°
2026-04-21 08:23 -6.20447 170.46706 36905 ft 463 kts 146°
2026-04-21 08:23 -6.25787 170.50276 36905 ft 463 kts 146°
2026-04-21 08:24 -6.31187 170.53887 36905 ft 463 kts 146°
2026-04-21 08:24 -6.36541 170.57469 36905 ft 463 kts 146°
2026-04-21 08:25 -6.41900 170.61055 36905 ft 463 kts 146°
2026-04-21 08:25 -6.47263 170.64645 36905 ft 463 kts 146°
2026-04-21 08:26 -6.52613 170.68227 36905 ft 463 kts 146°
2026-04-21 08:26 -6.57951 170.71802 36905 ft 463 kts 146°
2026-04-21 08:27 -6.63320 170.75399 36905 ft 463 kts 146°
2026-04-21 08:27 -6.67628 170.78285 36905 ft 463 kts 146°
2026-04-21 08:28 -6.73082 170.81940 36905 ft 463 kts 146°
2026-04-21 08:28 -6.78454 170.85539 36905 ft 463 kts 146°
2026-04-21 08:29 -6.83812 170.89133 36905 ft 463 kts 146°
2026-04-21 08:29 -6.89165 170.92725 36905 ft 463 kts 146°
2026-04-21 08:30 -6.93646 170.95733 36905 ft 463 kts 146°
2026-04-21 08:30 -6.99003 170.99326 36905 ft 463 kts 147°
2026-04-21 08:31 -7.04597 171.02527 36905 ft 463 kts 153°
2026-04-21 08:31 -7.10339 171.05425 36905 ft 463 kts 154°
2026-04-21 08:32 -7.16127 171.08364 36906 ft 463 kts 153°
2026-04-21 08:32 -7.21854 171.11294 36906 ft 463 kts 153°
2026-04-21 08:33 -7.27536 171.14211 36906 ft 463 kts 153°
2026-04-21 08:33 -7.33308 171.17180 36905 ft 463 kts 153°
2026-04-21 08:34 -7.39032 171.20127 36905 ft 463 kts 153°
2026-04-21 08:34 -7.44755 171.23079 36905 ft 463 kts 153°
2026-04-21 08:35 -7.50481 171.26033 36905 ft 463 kts 153°
2026-04-21 08:35 -7.56234 171.29004 36905 ft 463 kts 153°
2026-04-21 08:36 -7.61950 171.31957 36905 ft 463 kts 153°
2026-04-21 08:36 -7.67674 171.34915 36905 ft 463 kts 153°
2026-04-21 08:37 -7.73398 171.37874 36905 ft 463 kts 153°
2026-04-21 08:37 -7.79117 171.40832 36905 ft 463 kts 153°
2026-04-21 08:38 -7.84834 171.43790 36905 ft 463 kts 153°
2026-04-21 08:38 -7.90551 171.46749 36905 ft 463 kts 153°
2026-04-21 08:39 -7.96276 171.49712 36905 ft 463 kts 153°
2026-04-21 08:39 -8.02033 171.52693 36905 ft 463 kts 153°
2026-04-21 08:40 -8.07756 171.55658 36905 ft 463 kts 153°
2026-04-21 08:40 -8.13466 171.58617 36905 ft 463 kts 153°
2026-04-21 08:41 -8.19182 171.61579 36905 ft 463 kts 153°
2026-04-21 08:41 -8.24899 171.64544 36905 ft 462 kts 153°
2026-04-21 08:42 -8.30648 171.67526 36905 ft 462 kts 153°
2026-04-21 08:42 -8.36328 171.70473 36905 ft 462 kts 153°
2026-04-21 08:43 -8.42146 171.73493 36905 ft 462 kts 153°
2026-04-21 08:43 -8.48042 171.76554 36906 ft 462 kts 153°
2026-04-21 08:44 -8.53794 171.79542 36905 ft 462 kts 153°
2026-04-21 08:44 -8.59507 171.82509 36905 ft 462 kts 153°
2026-04-21 08:45 -8.65210 171.85474 36905 ft 462 kts 153°
2026-04-21 08:45 -8.70932 171.88449 36905 ft 462 kts 153°
2026-04-21 08:46 -8.76634 171.91414 36905 ft 462 kts 153°
2026-04-21 08:46 -8.82352 171.94389 36905 ft 462 kts 153°
2026-04-21 08:47 -8.88098 171.97380 36905 ft 462 kts 153°
2026-04-21 08:47 -8.93804 172.00351 36905 ft 462 kts 153°
2026-04-21 08:48 -8.99557 172.03347 36905 ft 462 kts 153°
2026-04-21 08:48 -9.05257 172.06317 36905 ft 462 kts 153°
2026-04-21 08:49 -9.10966 172.09292 36905 ft 462 kts 153°
2026-04-21 08:49 -9.16712 172.12288 36906 ft 462 kts 153°
2026-04-21 08:50 -9.22426 172.15269 36905 ft 462 kts 153°
2026-04-21 08:50 -9.28129 172.18245 36905 ft 462 kts 153°
2026-04-21 08:51 -9.33833 172.21222 36905 ft 462 kts 153°
2026-04-21 08:51 -9.39534 172.24199 36905 ft 462 kts 153°
2026-04-21 08:52 -9.45248 172.27184 36905 ft 462 kts 153°
2026-04-21 08:52 -9.50981 172.30181 36905 ft 462 kts 153°
2026-04-21 08:53 -9.56690 172.33163 36905 ft 462 kts 153°
2026-04-21 08:53 -9.62390 172.36143 36905 ft 462 kts 153°
2026-04-21 08:54 -9.68104 172.39134 36905 ft 462 kts 153°
2026-04-21 08:54 -9.73840 172.42139 36905 ft 462 kts 153°
2026-04-21 08:55 -9.79542 172.45124 36905 ft 462 kts 153°
2026-04-21 08:55 -9.85167 172.48253 36906 ft 462 kts 149°
2026-04-21 08:56 -9.90687 172.51654 36905 ft 462 kts 149°
2026-04-21 08:56 -9.96181 172.55032 36905 ft 462 kts 149°
2026-04-21 08:57 -10.01709 172.58418 36905 ft 462 kts 149°
2026-04-21 08:57 -10.07204 172.61778 36905 ft 462 kts 149°
2026-04-21 08:58 -10.11859 172.64620 36906 ft 462 kts 149°
2026-04-21 08:58 -10.17401 172.67997 36905 ft 462 kts 149°
2026-04-21 08:59 -10.22984 172.71400 36905 ft 462 kts 149°
2026-04-21 08:59 -10.28494 172.74761 36905 ft 462 kts 149°
2026-04-21 09:00 -10.33994 172.78115 36905 ft 462 kts 149°
2026-04-21 09:00 -10.39486 172.81467 36905 ft 462 kts 149°
2026-04-21 09:01 -10.44991 172.84828 36905 ft 462 kts 149°
2026-04-21 09:01 -10.50492 172.88188 36905 ft 462 kts 149°
2026-04-21 09:02 -10.56026 172.91569 36905 ft 462 kts 149°
2026-04-21 09:02 -10.61531 172.94934 36905 ft 462 kts 149°
2026-04-21 09:03 -10.69809 172.99997 36905 ft 462 kts 149°
2026-04-21 09:03 -10.75301 173.03358 36905 ft 462 kts 149°
2026-04-21 09:04 -10.80817 173.06735 36905 ft 462 kts 149°
2026-04-21 09:04 -10.86333 173.10112 36905 ft 462 kts 149°
2026-04-21 09:05 -10.91835 173.13484 36906 ft 462 kts 149°
2026-04-21 09:05 -10.97339 173.16858 36905 ft 462 kts 149°
2026-04-21 09:06 -11.02838 173.20230 36905 ft 462 kts 149°
2026-04-21 09:06 -11.08361 173.23618 36905 ft 462 kts 149°
2026-04-21 09:07 -11.13863 173.26996 36905 ft 462 kts 149°
2026-04-21 09:07 -11.19363 173.30373 36905 ft 462 kts 149°
2026-04-21 09:08 -11.24950 173.33805 36905 ft 462 kts 149°
2026-04-21 09:08 -11.30447 173.37184 36905 ft 462 kts 149°
2026-04-21 09:09 -11.35967 173.40578 36905 ft 462 kts 149°
2026-04-21 09:09 -11.41452 173.43953 36905 ft 462 kts 149°
2026-04-21 09:10 -11.46956 173.47340 36905 ft 462 kts 149°
2026-04-21 09:10 -11.52458 173.50728 36905 ft 462 kts 149°
2026-04-21 09:11 -11.57969 173.54123 36905 ft 461 kts 149°
2026-04-21 09:11 -11.63536 173.57554 36905 ft 461 kts 149°
2026-04-21 09:12 -11.69022 173.60937 36905 ft 461 kts 149°
2026-04-21 09:12 -11.74585 173.64369 36905 ft 461 kts 149°
2026-04-21 09:13 -11.79260 173.67254 36905 ft 461 kts 149°
2026-04-21 09:13 -11.84831 173.70694 36905 ft 461 kts 149°
2026-04-21 09:14 -11.90456 173.74169 36905 ft 461 kts 149°
2026-04-21 09:14 -11.95958 173.77569 36905 ft 461 kts 149°
2026-04-21 09:15 -12.01408 173.80939 36905 ft 461 kts 149°
2026-04-21 09:15 -12.06946 173.84365 36905 ft 461 kts 149°
2026-04-21 09:16 -12.12467 173.87782 36905 ft 461 kts 149°
2026-04-21 09:16 -12.17994 173.91205 36905 ft 461 kts 149°
2026-04-21 09:17 -12.23516 173.94626 36905 ft 461 kts 149°
2026-04-21 09:17 -12.28977 173.98011 36906 ft 461 kts 149°
2026-04-21 09:18 -12.34596 174.01496 36905 ft 461 kts 149°
2026-04-21 09:18 -12.40112 174.04918 36905 ft 461 kts 149°
2026-04-21 09:19 -12.45594 174.08322 36905 ft 461 kts 149°
2026-04-21 09:19 -12.51116 174.11752 36905 ft 461 kts 149°
2026-04-21 09:20 -12.56599 174.15159 36905 ft 461 kts 149°
2026-04-21 09:20 -12.62152 174.18611 36905 ft 461 kts 149°
2026-04-21 09:21 -12.67639 174.22024 36905 ft 461 kts 149°
2026-04-21 09:21 -12.73119 174.25435 36905 ft 461 kts 149°
2026-04-21 09:22 -12.78641 174.28873 36905 ft 461 kts 149°
2026-04-21 09:22 -12.84159 174.32312 36905 ft 461 kts 149°
2026-04-21 09:23 -12.89687 174.35757 36905 ft 461 kts 149°
2026-04-21 09:23 -12.95163 174.39172 36905 ft 461 kts 149°
2026-04-21 09:24 -12.99752 174.42035 36905 ft 461 kts 149°
2026-04-21 09:24 -13.05266 174.45478 36905 ft 461 kts 149°
2026-04-21 09:25 -13.10752 174.48904 36905 ft 461 kts 149°
2026-04-21 09:25 -13.16225 174.52325 36905 ft 461 kts 149°
2026-04-21 09:26 -13.21723 174.55762 36905 ft 461 kts 149°
2026-04-21 09:26 -13.27200 174.59189 36905 ft 461 kts 149°
2026-04-21 09:27 -13.32689 174.62624 36905 ft 461 kts 149°
2026-04-21 09:27 -13.38098 174.66012 36905 ft 461 kts 149°
2026-04-21 09:28 -13.43801 174.69585 36905 ft 461 kts 149°
2026-04-21 09:28 -13.49338 174.73057 36906 ft 461 kts 149°
2026-04-21 09:29 -13.54824 174.76498 36905 ft 461 kts 149°
2026-04-21 09:29 -13.60408 174.80003 36911 ft 461 kts 149°
2026-04-21 09:30 -13.65915 174.83461 37131 ft 467 kts 149°
2026-04-21 09:30 -13.68677 174.85196 37452 ft 465 kts 149°
2026-04-21 09:30 -13.71427 174.86924 37757 ft 464 kts 149°
2026-04-21 09:31 -13.74195 174.88664 38026 ft 463 kts 149°
2026-04-21 09:31 -13.77001 174.90429 38302 ft 462 kts 149°
2026-04-21 09:31 -13.79731 174.92145 38570 ft 461 kts 149°
2026-04-21 09:31 -13.82465 174.93866 38831 ft 460 kts 149°
2026-04-21 09:32 -13.87957 174.97322 38899 ft 462 kts 149°
2026-04-21 09:32 -13.93450 175.00781 38905 ft 459 kts 149°
2026-04-21 09:33 -13.98978 175.04265 38906 ft 459 kts 149°
2026-04-21 09:33 -14.04454 175.07717 38905 ft 459 kts 149°
2026-04-21 09:34 -14.09007 175.10589 38905 ft 459 kts 149°
2026-04-21 09:34 -14.14357 175.13966 38905 ft 459 kts 149°
2026-04-21 09:35 -14.19905 175.17469 38905 ft 459 kts 149°
2026-04-21 09:35 -14.25393 175.20937 38905 ft 459 kts 149°
2026-04-21 09:36 -14.30825 175.24371 38905 ft 459 kts 149°
2026-04-21 09:36 -14.36253 175.27805 38905 ft 459 kts 149°
2026-04-21 09:37 -14.41690 175.31246 38905 ft 459 kts 149°
2026-04-21 09:37 -14.47140 175.34697 38905 ft 459 kts 149°
2026-04-21 09:38 -14.52606 175.38161 38905 ft 459 kts 149°
2026-04-21 09:38 -14.58052 175.41614 38905 ft 459 kts 149°
2026-04-21 09:39 -14.63478 175.45056 38905 ft 459 kts 149°
2026-04-21 09:39 -14.68953 175.48532 38905 ft 459 kts 149°
2026-04-21 09:40 -14.74380 175.51979 38905 ft 459 kts 149°
2026-04-21 09:40 -14.79814 175.55433 38905 ft 459 kts 149°
2026-04-21 09:41 -14.85243 175.58885 38905 ft 459 kts 149°
2026-04-21 09:41 -14.90360 175.62141 38905 ft 459 kts 149°
2026-04-21 09:42 -14.95930 175.65688 38905 ft 459 kts 149°
2026-04-21 09:42 -15.01353 175.69143 38905 ft 459 kts 149°
2026-04-21 09:43 -15.06788 175.72607 38905 ft 459 kts 149°
2026-04-21 09:43 -15.12267 175.76102 38905 ft 459 kts 149°
2026-04-21 09:44 -15.17721 175.79583 38905 ft 459 kts 149°
2026-04-21 09:44 -15.23162 175.83058 38905 ft 459 kts 149°
2026-04-21 09:45 -15.28593 175.86529 38905 ft 459 kts 149°
2026-04-21 09:45 -15.34021 175.90000 38905 ft 459 kts 149°
2026-04-21 09:46 -15.39466 175.93478 38905 ft 459 kts 149°
2026-04-21 09:46 -15.44921 175.96971 38905 ft 459 kts 149°
2026-04-21 09:47 -15.50342 176.00446 38905 ft 459 kts 149°
2026-04-21 09:47 -15.55768 176.03927 38905 ft 459 kts 149°
2026-04-21 09:48 -15.61231 176.07433 38905 ft 459 kts 148°
2026-04-21 09:48 -15.66653 176.10910 38905 ft 459 kts 149°
2026-04-21 09:49 -15.72077 176.14390 38905 ft 459 kts 149°
2026-04-21 09:49 -15.77498 176.17873 38905 ft 459 kts 149°
2026-04-21 09:50 -15.82928 176.21364 38905 ft 459 kts 149°
2026-04-21 09:50 -15.88384 176.24874 38905 ft 459 kts 148°
2026-04-21 09:51 -15.93842 176.28382 38905 ft 459 kts 149°
2026-04-21 09:51 -15.99266 176.31865 38905 ft 459 kts 149°
2026-04-21 09:52 -16.04685 176.35353 38905 ft 459 kts 148°
2026-04-21 09:52 -16.10088 176.38837 38905 ft 459 kts 148°
2026-04-21 09:53 -16.15522 176.42345 38905 ft 459 kts 148°
2026-04-21 09:53 -16.20878 176.45906 38904 ft 459 kts 143°
2026-04-21 09:54 -16.25452 176.50722 38913 ft 460 kts 128°
2026-04-21 09:54 -16.29247 176.56089 38905 ft 460 kts 126°
2026-04-21 09:55 -16.32995 176.61513 38879 ft 461 kts 126°
2026-04-21 09:55 -16.34856 176.64223 38515 ft 459 kts 126°
2026-04-21 09:55 -16.36705 176.66922 37951 ft 457 kts 126°
2026-04-21 09:56 -16.38551 176.69624 37323 ft 458 kts 125°
2026-04-21 09:56 -16.40401 176.72336 36757 ft 457 kts 125°
2026-04-21 09:56 -16.42240 176.75035 36292 ft 454 kts 125°
2026-04-21 09:56 -16.43460 176.76827 35985 ft 451 kts 125°
2026-04-21 09:57 -16.45294 176.79505 35522 ft 449 kts 124°
2026-04-21 09:57 -16.47136 176.82205 35072 ft 456 kts 123°
2026-04-21 09:57 -16.49023 176.84976 34601 ft 462 kts 123°
2026-04-21 09:57 -16.50890 176.87719 34130 ft 466 kts 123°
2026-04-21 09:58 -16.52788 176.90512 33650 ft 462 kts 123°
2026-04-21 09:58 -16.54652 176.93256 33179 ft 460 kts 123°
2026-04-21 09:58 -16.56548 176.96049 32703 ft 458 kts 123°
2026-04-21 09:58 -16.58426 176.98817 32232 ft 455 kts 123°
2026-04-21 09:59 -16.60241 177.01494 31780 ft 453 kts 123°
2026-04-21 09:59 -16.62066 177.04176 31352 ft 448 kts 121°
2026-04-21 09:59 -16.63855 177.06819 30921 ft 444 kts 121°
2026-04-21 09:59 -16.65638 177.09455 30488 ft 440 kts 121°
2026-04-21 10:00 -16.67360 177.11999 30070 ft 437 kts 121°
2026-04-21 10:00 -16.69162 177.14664 29637 ft 433 kts 121°
2026-04-21 10:00 -16.70891 177.17221 29211 ft 430 kts 121°
2026-04-21 10:00 -16.72610 177.19763 28782 ft 427 kts 121°
2026-04-21 10:01 -16.74315 177.22286 28356 ft 425 kts 121°
2026-04-21 10:01 -16.76011 177.24797 27930 ft 422 kts 121°
2026-04-21 10:01 -16.77689 177.27282 27508 ft 419 kts 121°
2026-04-21 10:01 -16.79374 177.29777 27081 ft 417 kts 121°
2026-04-21 10:02 -16.82698 177.34704 26238 ft 412 kts 121°
2026-04-21 10:02 -16.84314 177.37099 25827 ft 409 kts 122°
2026-04-21 10:02 -16.85947 177.39522 25411 ft 407 kts 122°
2026-04-21 10:03 -16.87509 177.41840 25012 ft 405 kts 122°
2026-04-21 10:03 -16.89211 177.44366 24576 ft 403 kts 122°
2026-04-21 10:03 -16.90838 177.46781 24159 ft 401 kts 122°
2026-04-21 10:03 -16.92438 177.49157 23747 ft 399 kts 122°
2026-04-21 10:04 -16.94023 177.51512 23335 ft 397 kts 122°
2026-04-21 10:04 -16.95584 177.53833 22929 ft 395 kts 122°
2026-04-21 10:04 -16.97162 177.56179 22518 ft 393 kts 122°
2026-04-21 10:04 -16.98737 177.58522 22106 ft 391 kts 122°
2026-04-21 10:05 -17.00301 177.60849 21707 ft 389 kts 122°
2026-04-21 10:05 -17.01848 177.63152 21311 ft 387 kts 122°
2026-04-21 10:05 -17.03397 177.65457 20913 ft 386 kts 122°
2026-04-21 10:05 -17.04930 177.67741 20520 ft 384 kts 122°
2026-04-21 10:06 -17.06485 177.70058 20119 ft 382 kts 122°
2026-04-21 10:06 -17.08006 177.72325 19729 ft 380 kts 122°
2026-04-21 10:06 -17.09537 177.74599 19336 ft 379 kts 122°
2026-04-21 10:06 -17.11043 177.76839 18951 ft 377 kts 122°
2026-04-21 10:07 -17.12545 177.79079 18566 ft 375 kts 122°
2026-04-21 10:07 -17.14053 177.81328 18181 ft 374 kts 122°
2026-04-21 10:07 -17.15547 177.83560 17798 ft 372 kts 123°
2026-04-21 10:07 -17.17014 177.85752 17429 ft 370 kts 123°
2026-04-21 10:08 -17.18514 177.87995 17048 ft 368 kts 123°
2026-04-21 10:08 -17.19967 177.90169 16677 ft 366 kts 123°
2026-04-21 10:08 -17.21420 177.92344 16302 ft 360 kts 123°
2026-04-21 10:08 -17.22844 177.94475 15942 ft 355 kts 123°
2026-04-21 10:09 -17.24268 177.96607 15578 ft 354 kts 123°
2026-04-21 10:09 -17.25706 177.98740 15211 ft 353 kts 126°
2026-04-21 10:09 -17.27326 178.00679 14850 ft 352 kts 134°
2026-04-21 10:09 -17.29206 178.02358 14486 ft 351 kts 143°
2026-04-21 10:10 -17.31227 178.03761 14134 ft 349 kts 148°
2026-04-21 10:10 -17.32600 178.04644 13900 ft 348 kts 148°
2026-04-21 10:10 -17.34623 178.06017 13549 ft 346 kts 147°
2026-04-21 10:10 -17.36697 178.07457 13188 ft 345 kts 147°
2026-04-21 10:11 -17.38758 178.08720 12839 ft 343 kts 155°
2026-04-21 10:11 -17.40940 178.09590 12498 ft 340 kts 163°
2026-04-21 10:11 -17.43239 178.10321 12145 ft 338 kts 165°
2026-04-21 10:11 -17.45485 178.10982 11808 ft 336 kts 166°
2026-04-21 10:12 -17.47739 178.11639 11470 ft 334 kts 166°
2026-04-21 10:12 -17.49965 178.12286 11136 ft 333 kts 166°
2026-04-21 10:12 -17.52196 178.12933 10799 ft 331 kts 166°
2026-04-21 10:12 -17.54421 178.13578 10460 ft 329 kts 166°
2026-04-21 10:13 -17.56634 178.14217 10203 ft 325 kts 165°
2026-04-21 10:13 -17.58819 178.14849 10005 ft 319 kts 165°
2026-04-21 10:13 -17.60953 178.15467 9944 ft 307 kts 164°
2026-04-21 10:13 -17.63032 178.16068 9497 ft 309 kts 164°
2026-04-21 10:14 -17.65154 178.16680 9038 ft 314 kts 165°
2026-04-21 10:14 -17.67176 178.17263 8726 ft 312 kts 165°
2026-04-21 10:14 -17.69293 178.17874 8395 ft 308 kts 165°
2026-04-21 10:14 -17.71322 178.18460 8077 ft 300 kts 165°
2026-04-21 10:15 -17.73320 178.19038 7762 ft 295 kts 165°
2026-04-21 10:15 -17.75290 178.19608 7451 ft 294 kts 165°
2026-04-21 10:15 -17.77252 178.20176 7139 ft 293 kts 165°
2026-04-21 10:15 -17.79252 178.20754 6823 ft 291 kts 165°
2026-04-21 10:16 -17.81197 178.21318 6516 ft 290 kts 165°
2026-04-21 10:16 -17.83111 178.21872 6212 ft 289 kts 165°
2026-04-21 10:16 -17.85087 178.22445 5948 ft 285 kts 165°
2026-04-21 10:16 -17.86956 178.22986 5784 ft 278 kts 165°
2026-04-21 10:17 -17.88797 178.23519 5627 ft 271 kts 165°
2026-04-21 10:17 -17.90603 178.24043 5477 ft 264 kts 165°
2026-04-21 10:17 -17.92374 178.24577 5326 ft 257 kts 160°
2026-04-21 10:17 -17.93948 178.25383 5145 ft 250 kts 144°
2026-04-21 10:18 -17.94999 178.26783 4930 ft 241 kts 110°
2026-04-21 10:18 -17.95365 178.28479 4762 ft 234 kts 97°
2026-04-21 10:18 -17.95744 178.30134 4561 ft 232 kts 105°
2026-04-21 10:18 -17.96248 178.31737 4365 ft 230 kts 107°
2026-04-21 10:19 -17.96775 178.33298 4177 ft 227 kts 108°
2026-04-21 10:19 -17.97304 178.34859 3957 ft 222 kts 107°
2026-04-21 10:19 -17.97818 178.36393 3665 ft 221 kts 108°
2026-04-21 10:19 -17.98328 178.37917 3379 ft 218 kts 108°
2026-04-21 10:20 -17.98832 178.39424 3117 ft 210 kts 108°
2026-04-21 10:20 -17.99308 178.40851 2825 ft 204 kts 108°
2026-04-21 10:20 -17.99769 178.42230 2552 ft 197 kts 108°
2026-04-21 10:20 -18.00205 178.43539 2306 ft 185 kts 108°
2026-04-21 10:21 -18.00621 178.44785 2013 ft 180 kts 108°
2026-04-21 10:21 -18.01028 178.46009 1808 ft 168 kts 109°
2026-04-21 10:21 -18.01401 178.47127 1618 ft 158 kts 110°
2026-04-21 10:21 -18.01757 178.48193 1417 ft 149 kts 111°
2026-04-21 10:22 -18.02090 178.49194 1241 ft 141 kts 111°
2026-04-21 10:22 -18.02415 178.50168 1040 ft 140 kts 111°
2026-04-21 10:22 -18.02729 178.51109 858 ft 138 kts 111°
2026-04-21 10:22 -18.03050 178.52070 670 ft 139 kts 109°
2026-04-21 10:23 -18.03370 178.53033 485 ft 142 kts 109°
2026-04-21 10:23 -18.03702 178.54033 292 ft 143 kts 109°
2026-04-21 10:23 -18.04023 178.55005 138 ft 133 kts 109°
2026-04-21 10:23 -18.04327 178.55885 53 ft 121 kts 108°
2026-04-21 10:24 -18.04537 178.56524 25 ft 41 kts 104°
2026-04-21 10:24 -18.04549 178.56569 25 ft 0 kts 111°
2026-04-21 10:25 -18.04549 178.56570 25 ft 0 kts 112°
2026-04-21 10:26 -18.04549 178.56571 25 ft 0 kts 114°